Regional Weather Roundup
Issued by NWS

Home | Current Version | Previous Version | Text Only | Print | Product List | Glossary On
Versions: 1 2 3 4 5 6 7 8 9 10 11 12 13 14 15 16 17 18 19 20 21 22 23 24 25 26 27 28 29 30 31 32 33 34 35 36 37 38 39 40 41 42 43 44 45 46 47 48 49 50
000
ASUS43 KMPX 061210
RWRMN
WEATHER ROUNDUP FOR MINNESOTA
NATIONAL WEATHER SERVICE TWIN CITIES/CHANHASSEN MN
700 AM CDT MON JUL 06 2015


NOTE: "FAIR" INDICATES FEW OR NO CLOUDS BELOW 12,000 FEET WITH NO
SIGNIFICANT WEATHER AND/OR OBSTRUCTIONS TO VISIBILITY. N/A MEANS
CURRENT SKY AND/OR WEATHER CONDITIONS ARE NOT AVAILABLE.

MNZ060>063-068>070-061300-
   Twin Cities Metro

CITY           SKY/WX    TMP DP  RH WIND       PRES   REMARKS
TWIN CITIES    RAIN      70  68  93 E8        29.79F FOG
6HR MIN TEMP:  69; 6HR MAX TEMP:  77; 6HR PCP:  2.59;

ST PAUL        RAIN      69  68  96 E5        29.81F FOG
CRYSTAL        LGT RAIN  70  67  90 SE8       29.79F
BLAINE         CLOUDY    70  70 100 MISG      29.81F
LAKEVILLE      RAIN      68  66  94 CALM      29.81F
EDEN PRAIRIE   RAIN      71  69  93 E6        29.79F FOG
6HR MIN TEMP:  70; 6HR MAX TEMP:  74; 6HR PCP:  1.91;

SOUTH ST PAUL  LGT RAIN  69  68  96 E5        29.80F
LAKE ELMO      HVY RAIN  68  68 100 NE3       29.83F
$$
MNZ001>005-007-008-013>017-022>024-027-028-061300-
   Northwest Minnesota

CITY           SKY/WX    TMP DP  RH WIND       PRES   REMARKS
BEMIDJI        CLOUDY    60  58  93 N12       29.95R FOG
HALLOCK        MOSUNNY   52  48  87 N9        30.06R
ROSEAU         PTSUNNY   52  46  82 N7        30.03R
WARROAD        PTSUNNY   52  46  82 NW9       30.02R
THIEF RVR FALL MOSUNNY   55  46  71 N14       30.01R
CROOKSTON      MOSUNNY   57  54  88 N10G16    30.02R
FOSSTON        PTSUNNY   54  50  87 N10       29.99S
DETROIT LAKES  CLOUDY    63  59  88 N12       29.97R FOG
MOORHEAD       CLOUDY    61  57  88 N14G21    29.98R FOG
PARK RAPIDS    CLOUDY    65  59  81 N9        29.94R HAZE
MAHNOMEN       CLOUDY    57  51  80 N17       29.98R
$$
MNZ006-009>011-018-025>026-061300-
   North Central Minnesota

CITY           SKY/WX    TMP DP  RH WIND       PRES   REMARKS
BAUDETTE       PTSUNNY   55  44  66 NW16G24   29.97R
FLAG ISLAND    MOSUNNY   54  46  76 NW20      29.98R
INTL FALLS     CLOUDY    58  55  90 NW8       29.93R FOG
6HR MIN TEMP:  52; 6HR MAX TEMP:  58;

WASKISH        PTSUNNY   55  52  88 N5        29.96R
BIG FORK       CLOUDY    59  57  94 N6        29.93R FOG
LONGVILLE      LGT RAIN  63  61  94 CALM      29.92R
GRAND RAPIDS   CLOUDY    61  57  88 N6        29.92R
CRANE LAKE     CLOUDY    59  57  94 N5        29.91R
COOK           CLOUDY    59  57  94 CALM      29.92R FOG
WALKER         CLOUDY    62  59  92 N3        29.94R FOG
$$
MNZ012-019>021-037-061300-
   Northeast Minnesota

CITY           SKY/WX    TMP DP  RH WIND       PRES   REMARKS
DULUTH         LGT RAIN  65  61  87 N8        29.86R FOG
6HR MIN TEMP:  65; 6HR MAX TEMP:  67; 6HR PCP:  0.04;

ELY            CLOUDY    57  57 100 CALM      29.91R FOG
HIBBING        CLOUDY    60  58  92 N3        29.90R
DULUTH HARBOR  RAIN      66  64  94 N7        29.84S VSB 1
TWO HARBORS    CLOUDY    66  63  88 NE2       29.84R
SILVER BAY     DRIZZLE   64  61  88 CALM      29.85R
GRAND MARAIS     N/A     62  59  90 CALM      29.83R
G MARAIS ARPRT CLOUDY    59  54  82 N6        29.88R HAZE
$$
MNZ029>031-032-039>041-046>048-054>057-064-061300-
   West Central Minnesota

CITY           SKY/WX    TMP DP  RH WIND       PRES   REMARKS
FERGUS FALLS   CLOUDY    64  63  94 N8        29.93R FOG
WHEATON        LGT RAIN  61  61 100 N10G20    29.94R
MORRIS         CLOUDY    66  64  94 N13       29.88R FOG
ALEXANDRIA     LGT RAIN  66  61  84 N14       29.91S
ELBOW LAKE     PTSUNNY   65  63  95 N9        29.91R FOG
WADENA         CLOUDY   N/A N/A N/A N8        29.93R FOG
GLENWOOD       CLOUDY    66  61  82 N13G18    29.89S HAZE
APPLETON       CLOUDY    70  64  83 N13       29.88R FOG
BENSON         CLOUDY    68  63  83 NE7       29.88R
ORTONVILLE     CLOUDY    64  63  94 N12       29.89S FOG
MADISON        CLOUDY    68  64  88 N15       29.87S FOG
WILLMAR        RAIN      70  68  94 N14       29.87R
$$
MNZ033>034-036-042>043-049>051-058-059-061300-
   Central Minnesota

CITY           SKY/WX    TMP DP  RH WIND       PRES   REMARKS
ST CLOUD       RAIN      68  67  96 N8        29.83R VSB 1
6HR MIN TEMP:  68; 6HR MAX TEMP:  70; 6HR PCP:  0.20;

SAUK CENTRE    CLOUDY    65  59  81 N10G17    29.89R HAZE
PAYNESVILLE    CLOUDY    64  64  99 NW13G21   29.87R FOG
AITKIN         CLOUDY    63  57  82 N6        29.88R HAZE
PINE RIVER     LGT RAIN  63  61  94 N6        29.95R
BRAINERD       CLOUDY    64  59  83 N10       29.90R HAZE
STAPLES        CLOUDY    63  63 100 N8        29.91R FOG
LONG PRAIRIE   CLOUDY    63  59  88 NW10      29.89S
LITTLE FALLS   LGT RAIN  63  61  94 CALM        N/A
LITCHFIELD     LGT RAIN  70  70 100 NW5       29.84R
BUFFALO        RAIN      69  67  92 CALM      29.82R
MAPLE LAKE     RAIN      70  69  97 CALM      29.83R
$$
MNZ037-044-045-052-053-061300-
   East Central Minnesota

CITY           SKY/WX    TMP DP  RH WIND       PRES   REMARKS
PRINCETON      RAIN      70  68  94 CALM      29.83R
MORA           RAIN      64  64 100 CALM      29.85R
CAMBRIDGE      LGT RAIN  70  63  78 CALM      29.81R
RUSH CITY      LGT RAIN  67  65  96 CALM      29.83R
MOOSE LAKE     RAIN      63  63 100 N5        29.83R
HINCKLEY       HVY RAIN  68  68 100 CALM      29.83R
CLOQUET        LGT RAIN  64  63  94 N7        29.86R
MCGREGOR       CLOUDY    63  61  94 N8        29.88R
$$
MNZ071>073-080-081-089-090-097-098-061300-
   Southwest Minnesota

CITY           SKY/WX    TMP DP  RH WIND       PRES   REMARKS
MONTEVIDEO       N/A    N/A N/A N/A MISG        N/A
GRANITE FALLS  CLOUDY    67  66  96 N13G23    29.86S
CANBY          CLOUDY    67  65  93 N15G22    29.87S FOG
MARSHALL       CLOUDY    66  63  88 N13       29.83R
REDWOOD FALLS  LGT RAIN  70  68  93 N8        29.82S FOG
OLIVIA         LGT RAIN  68  64  88 N9        29.83S
PIPESTONE      CLOUDY    68  66  94 NE5       29.87R
WINDOM         RAIN      70  68  94 CALM      29.81F
WORTHINGTON    CLOUDY    68  64  88 SE5       29.83S
JACKSON        DRIZZLE   70  70 100 S6        29.83F
TRACY          LGT RAIN  69  68  98 N16       29.82F
SLAYTON        DRIZZLE   68  68 100 N3        29.84S
$$
MNZ065>067-074>077-082>085-091>093-061300-
   South Central Minnesota

CITY           SKY/WX    TMP DP  RH WIND       PRES   REMARKS
MANKATO        CLOUDY    70  68  94 S6        29.80S
NEW ULM        LGT RAIN  70  70 100 S3        29.82S
ST JAMES       LGT RAIN  72  72 100 W3        29.83S
FAIRMONT       CLOUDY    70  64  83 S6        29.82F
GLENCOE        LGT RAIN  71  71  99 E5        29.80S
FARIBAULT      CLOUDY    70  70 100 W9        29.81F
OWATONNA       LGT RAIN  72  68  88 S8        29.84S
WASECA         RAIN      70  68  94 S6        29.87S
ALBERT LEA     LGT RAIN  72  70  94 SW7       29.84F
$$
MNZ078>079-086>088-094>096-061300-
   Southeast Minnesota

CITY           SKY/WX    TMP DP  RH WIND       PRES   REMARKS
ROCHESTER      RAIN      71  69  93 W7        29.86F FOG
6HR MIN TEMP:  71; 6HR MAX TEMP:  74; 6HR PCP:  0.21;

RED WING       RAIN      72  70  94 CALM      29.83R
STANTON        CLOUDY    70  66  88 CALM      29.81F
DODGE CENTER   RAIN      72  70  94 SW3       29.86S
WINONA         CLOUDY    73  68  83 CALM      29.84R
AUSTIN         RAIN      72  70  94 SW3       29.83R
PRESTON        CLOUDY    70  68  92 SW12      29.88R
$$
ABBREVIATIONS USED IN REMARKS
   TC - TEMPERATURES IN CELSIUS
  WCI - WIND CHILL INDEX
   HX - HEAT INDEX
  VSB - VISIBILITY
$$



USA.gov is the U.S. government's official web portal to all federal, state and local government web resources and services.